Regional Weather Roundup
Issued by NWS

Home | Current Version | Previous Version | Graphics & Text | Print | Product List | Glossary On
Versions: 1 2 3 4 5 6 7 8 9 10 11 12 13 14 15 16 17 18 19 20 21 22 23 24 25 26 27 28 29 30 31 32 33 34 35 36 37 38 39 40 41 42 43 44 45 46 47 48 49 50
000
ASUS45 KBOI 010310
RWRID
WEATHER ROUNDUP FOR IDAHO
NATIONAL WEATHER SERVICE BOISE ID
900 PM MDT THU JUL 31 2014

NOTE: "FAIR" INDICATES FEW OR NO CLOUDS BELOW 12000 FEET
WITH NO SIGNIFICANT WEATHER AND/OR OBSTRUCTIONS TO VISIBILITY

IDZ012-014-010400-
SOUTHWEST IDAHO


CITY           SKY/WX    TMP DP  RH WIND       PRES   REMARKS
BOISE          MOCLDY    82  47  29 E21G29    30.05R
CALDWELL       MOCLDY    79  46  31 SE7       30.04R
MOUNTAIN HOME  MOCLDY    82  49  30 NE12      30.03R
$$

IDZ016-017-010400-
SOUTHCENTRAL IDAHO


CITY           SKY/WX    TMP DP  RH WIND       PRES   REMARKS
BURLEY         MOCLDY    75  51  43 S10       30.09R
JEROME         CLOUDY    78  49  35 W3        30.11R
TWIN FALLS     CLOUDY    80  43  26 S13       30.10R
$$

IDZ019>023-010400-
SOUTHEAST IDAHO


CITY           SKY/WX    TMP DP  RH WIND       PRES   REMARKS
IDAHO FALLS    MOCLDY    74  47  38 N9        30.16R
POCATELLO      PTCLDY    80  47  31 CALM      30.12R
REXBURG        MOCLDY    74  44  34 NE8       30.18R
$$

IDZ006-010-011-018-031-032-010400-
CENTRAL IDAHO MOUNTAINS


CITY           SKY/WX    TMP DP  RH WIND       PRES   REMARKS
MCCALL         CLOUDY    75  43  31 SE3       30.18F
HAILEY         MOCLDY    70  54  56 W8        30.22S
STANLEY          N/A     67  41  38 S12G22    30.35R
SALMON         CLOUDY    77  48  36 CALM      30.09R
CHALLIS        CLOUDY    75  44  33 VRB5      30.21R
$$

IDZ002-004-006-007-026-010400-
NORTHERN IDAHO


CITY           SKY/WX    TMP DP  RH WIND       PRES   REMARKS
LEWISTON       CLOUDY    93  43  17 NW7       29.94R
LOWELL           N/A     77  60  55 CALM      29.95R
COEUR D`ALENE  PTCLDY    82  50  32 CALM      29.95R
MULLAN PASS    PTCLDY    70  33  25 NW5       30.28R
$$


USA.gov is the U.S. government's official web portal to all federal, state and local government web resources and services.